Alexandria, LA

9:33 PM CDT on October 18, 2017 (GMT -0500)
Alexandria International

Weather History for KAEX - March, 2013

Change the Weather History Date:

Saturday, March 2, 2013

  Actual Average Record
Temperature  
Mean Temperature 40 °F 56 °F  
Max Temperature 49 °F 67 °F 84 °F (1940)
Min Temperature 30 °F 45 °F 23 °F (1980)
Degree Days  
Heating Degree Days 25 10  
Month to date heating degree days 45 20  
Since 1 July heating degree days 1478 1685  
Cooling Degree Days 0 1  
Month to date cooling degree days 0 2  
Year to date cooling degree days 18 19  
Moisture  
Dew Point 26 °F    
Average Humidity 64    
Maximum Humidity 89    
Minimum Humidity 39    
Precipitation  
Precipitation 0.00 in 0.17 in 3.42 in (1964)
Month to date precipitation 0.00 0.34  
Year to date precipitation 16.45 10.02  
Snow  
Snow 0.00 in - T in (1950)
Month to date snowfall 0.0  
Since 1 July snowfall 0.0  
Snow Depth 0.00 in    
Sea Level Pressure  
Sea Level Pressure 30.26 in    
Wind  
Wind Speed 8 mph (NW)    
Max Wind Speed 20 mph    
Max Gust Speed 26 mph    
Visibility 10 miles    
Events      
T = Trace of Precipitation, MM = Missing Value Source: NWS Daily Summary

Daily Weather History Graph

Daily Weather History Graph

Search for Another Location

Airport or City:

Trip Planner

Search our weather history database for the weather conditions in past years. The results will help you decide how hot, cold, wet, or windy it might be!

Date:

Astronomy

Mar. 02, 2013 Rise Set
Actual Time 6:35 AM CST 6:09 PM CST
Civil Twilight 6:11 AM CST 6:33 PM CST
Nautical Twilight 5:43 AM CST 7:01 PM CST
Astronomical Twilight 5:15 AM CST 7:29 PM CST
Moon 11:25 PM CST (3/2) 9:26 AM CST (3/2)
Length of Visible Light 12h 22m
Length of Day
11h 33m
Waning Gibbous, 74% of the Moon is Illuminated
Mar 2
Waning Gibbous
Mar 4
Last Quarter
Mar 11
New
Mar 19
First Quarter
Mar 27
Full

Hourly Weather History & Observations

Time (CST) Temp. Windchill Dew Point Humidity Pressure Visibility Wind Dir Wind Speed Gust Speed Precip Events Conditions
12:53 AM 39.9 °F 35.1 °F 32.0 °F 73% 30.19 in 10.0 mi North 6.9 mph - N/A   Clear
1:53 AM 37.0 °F 32.4 °F 30.9 °F 79% 30.21 in 10.0 mi NNE 5.8 mph - N/A   Clear
3:53 AM 34.0 °F - 30.0 °F 85% 30.22 in 10.0 mi Calm Calm - N/A   Clear
4:53 AM 33.1 °F 27.7 °F 28.9 °F 85% 30.25 in 10.0 mi NNW 5.8 mph - N/A   Clear
6:53 AM 33.1 °F 26.1 °F 26.1 °F 75% 30.27 in 10.0 mi NW 8.1 mph - N/A   Mostly Cloudy
7:53 AM 35.1 °F 27.9 °F 24.1 °F 64% 30.29 in 10.0 mi NNW 9.2 mph - N/A   Clear
8:53 AM 37.0 °F 27.4 °F 23.0 °F 57% 30.31 in 10.0 mi NW 17.3 mph 23.0 mph N/A   Mostly Cloudy
9:53 AM 37.9 °F 28.5 °F 24.1 °F 57% 30.31 in 10.0 mi NNW 17.3 mph 23.0 mph N/A   Overcast
10:53 AM 39.9 °F 32.1 °F 23.0 °F 51% 30.31 in 10.0 mi NNW 13.8 mph 21.9 mph N/A   Overcast
11:53 AM 41.0 °F 35.2 °F 23.0 °F 49% 30.30 in 10.0 mi NW 9.2 mph 19.6 mph N/A   Overcast
12:53 PM 43.0 °F 36.0 °F 23.0 °F 45% 30.27 in 10.0 mi NW 13.8 mph - N/A   Mostly Cloudy
1:53 PM 44.1 °F 39.0 °F 23.0 °F 43% 30.25 in 10.0 mi NW 9.2 mph 18.4 mph N/A   Partly Cloudy
2:53 PM 46.9 °F - 24.1 °F 41% 30.23 in 10.0 mi WNW 17.3 mph 21.9 mph N/A   Scattered Clouds
3:53 PM 48.0 °F - 25.0 °F 41% 30.22 in 10.0 mi NW 8.1 mph 20.7 mph N/A   Clear
4:53 PM 48.0 °F - 24.1 °F 39% 30.23 in 10.0 mi WNW 13.8 mph 19.6 mph N/A   Clear
5:53 PM 45.0 °F 39.3 °F 25.0 °F 46% 30.25 in 10.0 mi WNW 11.5 mph 17.3 mph N/A   Clear
7:53 PM 39.0 °F 34.8 °F 26.1 °F 60% 30.28 in 10.0 mi NW 5.8 mph - N/A   Clear
8:53 PM 37.0 °F 33.3 °F 26.1 °F 65% 30.28 in 10.0 mi NNW 4.6 mph - N/A   Clear
9:53 PM 37.9 °F 35.5 °F 25.0 °F 60% 30.29 in 10.0 mi NNW 3.5 mph - N/A   Clear
10:53 PM 34.0 °F - 27.0 °F 75% 30.28 in 10.0 mi Calm Calm - N/A   Clear
11:53 PM 32.0 °F - 25.0 °F 75% 30.27 in 10.0 mi Calm Calm - N/A   Clear